This is the latest recevied weather packets stored in our database for station/object TONGUE. If no packets are shown the sender has not sent any weather packets the latest 10 day(s).
| Time | Temp. | Humidity | Pressure | Rain* | Wind** | Luminosity | Snow |
|---|---|---|---|---|---|---|---|
| 1787941203 | 18.33° C | 83% | 0 hPa | - | - | - | - |
| 1787940603 | 17.78° C | 83% | 0 hPa | - | - | - | - |
| 1787940004 | 17.78° C | 85% | 0 hPa | - | - | - | - |
| 1787939403 | 17.78° C | 86% | 0 hPa | - | - | - | - |
| 1787938803 | 18.33° C | 84% | 0 hPa | - | - | - | - |
| 1787938204 | 17.78° C | 84% | 0 hPa | - | - | - | - |
| 1787937602 | 17.78° C | 83% | 0 hPa | - | - | - | - |
| 1787937003 | 17.22° C | 84% | 0 hPa | - | - | - | - |
| 1787936403 | 17.22° C | 96% | 0 hPa | - | - | - | - |
| 1787935803 | 17.22° C | 97% | 0 hPa | - | - | - | - |
| 1787935203 | 17.22° C | 96% | 0 hPa | - | - | - | - |
| 1787934604 | 17.22° C | 98% | 0 hPa | - | - | - | - |
| 1787934003 | 17.22° C | - | - | - | - | - | - |
| 1787933402 | 16.11° C | 100% | 0 hPa | - | - | - | - |
| 1787932803 | 15.56° C | 99% | 0 hPa | - | - | - | - |
| 1787932203 | 15.56° C | 100% | 0 hPa | - | - | - | - |
| 1787931603 | 15.56° C | 100% | 0 hPa | - | - | - | - |
| 1787930403 | 15° C | 100% | 0 hPa | - | - | - | - |
| 1787929205 | 15° C | 100% | 0 hPa | - | - | - | - |
| 1787928603 | 14.44° C | 100% | 0 hPa | - | - | - | - |
| 1787928003 | 14.44° C | 100% | 0 hPa | - | - | - | - |
| 1787927403 | 13.89° C | 100% | 0 hPa | - | - | - | - |
| 1787926803 | 13.89° C | 99% | 0 hPa | - | - | - | - |
| 1787926203 | 13.89° C | 100% | 0 hPa | - | - | - | - |
| 1787925003 | 13.89° C | 99% | 0 hPa | - | - | - | - |
* Rain since midnight (hover to see other rain measurements)
** Current wind speed in m/s (hover to see current wind gust speed)